GLOBALSTAR M024 [-]

Last updated on Fri Dec 29 2023 00:02:56 GMT+0000 (Coordinated Universal Time)

1 25883U 99043A 23361.75763157 -.00000153 00000+0 -31153-2 0 9992 2 25883 51.9986 153.2337 0000338 337.4663 126.9910 11.10156831 55179

Satellite not in orbit

GLOBALSTAR M024 [-]